Time,TemperatureF,DewpointF,PressureIn,WindDirection,WindDirectionDegrees,WindSpeedMPH,WindSpeedGustMPH,Humidity,HourlyPrecipIn,Conditions,Clouds,dailyrainin,SoftwareType,DateUTC
2013-08-06 00:01:00,76.1,73.3,29.98,NW,307,0.0,0.0,91,0.00,,CLR,0.00,VWS V14.01,2013-08-06 04:01:00,
2013-08-06 00:02:00,76.1,73.6,29.99,NW,307,0.0,0.0,92,0.00,,CLR,0.00,VWS V14.01,2013-08-06 04:02:00,
2013-08-06 00:07:00,76.1,73.3,29.98,NW,307,2.0,4.0,91,0.00,,CLR,0.00,VWS V14.01,2013-08-06 04:07:00,
2013-08-06 00:12:00,76.1,73.6,29.98,NW,307,2.0,4.0,92,0.00,,CLR,0.00,VWS V14.01,2013-08-06 04:12:00,
2013-08-06 00:17:00,76.1,73.6,29.98,NW,307,0.0,4.0,92,0.00,,CLR,0.00,VWS V14.01,2013-08-06 04:17:00,
2013-08-06 00:22:00,76.1,73.6,29.98,NW,307,0.0,4.0,92,0.00,,CLR,0.00,VWS V14.01,2013-08-06 04:22:00,
2013-08-06 00:27:00,76.1,73.6,29.98,NW,307,0.0,4.0,92,0.00,,CLR,0.00,VWS V14.01,2013-08-06 04:27:00,
2013-08-06 00:32:00,76.1,73.6,29.97,NW,307,0.0,4.0,92,0.00,,CLR,0.00,VWS V14.01,2013-08-06 04:32:00,
2013-08-06 00:37:00,76.0,73.5,29.96,NW,307,0.0,4.0,92,0.00,,CLR,0.00,VWS V14.01,2013-08-06 04:37:00,
2013-08-06 00:42:00,76.0,73.2,29.97,NW,306,0.0,4.0,91,0.00,,CLR,0.00,VWS V14.01,2013-08-06 04:42:00,
2013-08-06 00:47:00,75.9,73.1,29.98,WNW,289,4.0,5.0,91,0.00,,CLR,0.00,VWS V14.01,2013-08-06 04:47:00,
2013-08-06 00:52:00,75.9,73.4,29.98,West,275,3.0,5.0,92,0.00,,CLR,0.00,VWS V14.01,2013-08-06 04:52:00,
2013-08-06 00:57:00,75.9,73.4,29.97,West,276,0.0,5.0,92,0.00,,CLR,0.00,VWS V14.01,2013-08-06 04:57:00,
2013-08-06 01:02:00,75.8,73.3,29.97,West,276,0.0,0.0,92,0.00,,CLR,0.00,VWS V14.01,2013-08-06 05:02:00,
2013-08-06 01:07:00,75.8,73.3,29.97,West,276,0.0,0.0,92,0.00,,CLR,0.00,VWS V14.01,2013-08-06 05:07:00,
2013-08-06 01:12:00,75.9,73.4,29.97,West,276,0.0,0.0,92,0.00,,CLR,0.00,VWS V14.01,2013-08-06 05:12:00,
2013-08-06 01:17:00,75.8,73.3,29.97,West,276,0.0,0.0,92,0.00,,CLR,0.00,VWS V14.01,2013-08-06 05:17:00,
2013-08-06 01:22:00,75.9,73.4,29.96,West,276,0.0,0.0,92,0.00,,CLR,0.00,VWS V14.01,2013-08-06 05:22:00,
2013-08-06 01:27:00,75.9,73.4,29.96,West,276,0.0,0.0,92,0.00,,CLR,0.00,VWS V14.01,2013-08-06 05:27:00,
2013-08-06 01:32:00,75.9,73.4,29.97,West,276,0.0,0.0,92,0.00,,CLR,0.00,VWS V14.01,2013-08-06 05:32:00,
2013-08-06 01:37:00,75.9,73.4,29.96,West,276,0.0,0.0,92,0.00,,CLR,0.00,VWS V14.01,2013-08-06 05:37:00,
2013-08-06 01:42:00,75.9,73.4,29.97,West,277,0.0,0.0,92,0.00,,CLR,0.00,VWS V14.01,2013-08-06 05:42:00,
2013-08-06 01:47:00,75.9,73.1,29.97,West,277,0.0,0.0,91,0.00,,CLR,0.00,VWS V14.01,2013-08-06 05:47:00,
2013-08-06 01:52:00,75.9,73.1,29.96,West,277,0.0,0.0,91,0.00,,CLR,0.00,VWS V14.01,2013-08-06 05:52:00,
2013-08-06 01:57:00,75.9,73.1,29.96,West,277,0.0,1.0,91,0.00,,CLR,0.00,VWS V14.01,2013-08-06 05:57:00,
2013-08-06 02:02:00,75.9,73.4,29.96,West,277,0.0,0.0,92,0.00,,CLR,0.00,VWS V14.01,2013-08-06 06:02:00,
2013-08-06 02:07:00,75.9,73.1,29.96,West,277,0.0,0.0,91,0.00,,CLR,0.00,VWS V14.01,2013-08-06 06:07:00,
2013-08-06 02:12:00,75.9,73.1,29.96,West,277,0.0,0.0,91,0.00,,CLR,0.00,VWS V14.01,2013-08-06 06:12:00,
2013-08-06 02:17:00,75.9,73.4,29.96,West,277,0.0,0.0,92,0.00,,CLR,0.00,VWS V14.01,2013-08-06 06:17:00,
2013-08-06 02:22:00,75.9,73.1,29.96,West,277,0.0,0.0,91,0.00,,CLR,0.00,VWS V14.01,2013-08-06 06:22:00,
2013-08-06 02:27:00,75.8,73.0,29.95,West,277,0.0,0.0,91,0.00,,CLR,0.00,VWS V14.01,2013-08-06 06:27:00,
2013-08-06 02:32:00,75.8,73.0,29.96,West,277,0.0,0.0,91,0.00,,CLR,0.00,VWS V14.01,2013-08-06 06:32:00,
2013-08-06 02:37:00,75.7,72.9,29.96,West,277,0.0,0.0,91,0.00,,CLR,0.00,VWS V14.01,2013-08-06 06:37:00,
2013-08-06 02:42:00,75.6,72.8,29.96,West,277,0.0,0.0,91,0.00,,CLR,0.00,VWS V14.01,2013-08-06 06:42:00,
2013-08-06 02:47:00,75.5,73.0,29.96,West,277,0.0,1.0,92,0.00,,CLR,0.00,VWS V14.01,2013-08-06 06:47:00,
2013-08-06 02:52:00,75.4,72.9,29.96,West,277,0.0,1.0,92,0.00,,CLR,0.00,VWS V14.01,2013-08-06 06:52:00,
2013-08-06 02:57:00,75.4,72.9,29.95,West,277,0.0,1.0,92,0.00,,CLR,0.00,VWS V14.01,2013-08-06 06:57:00,
2013-08-06 03:02:00,75.4,72.9,29.95,West,277,0.0,0.0,92,0.00,,CLR,0.00,VWS V14.01,2013-08-06 07:02:00,
2013-08-06 03:07:00,75.4,72.9,29.95,West,277,0.0,0.0,92,0.00,,CLR,0.00,VWS V14.01,2013-08-06 07:07:00,
2013-08-06 03:12:00,75.5,73.0,29.95,West,277,0.0,0.0,92,0.00,,CLR,0.00,VWS V14.01,2013-08-06 07:12:00,
2013-08-06 03:17:00,75.4,72.9,29.94,West,277,0.0,0.0,92,0.00,,CLR,0.00,VWS V14.01,2013-08-06 07:17:00,
2013-08-06 03:22:00,75.5,73.0,29.94,West,277,0.0,0.0,92,0.00,,CLR,0.00,VWS V14.01,2013-08-06 07:22:00,
2013-08-06 03:27:00,75.5,73.0,29.94,West,277,0.0,0.0,92,0.00,,CLR,0.00,VWS V14.01,2013-08-06 07:27:00,
2013-08-06 03:32:00,75.5,73.0,29.94,West,277,0.0,1.0,92,0.00,,CLR,0.00,VWS V14.01,2013-08-06 07:32:00,
2013-08-06 03:37:00,75.5,73.0,29.93,West,277,0.0,1.0,92,0.00,,CLR,0.00,VWS V14.01,2013-08-06 07:37:00,
2013-08-06 03:42:00,75.5,73.0,29.94,West,277,0.0,1.0,92,0.00,,CLR,0.00,VWS V14.01,2013-08-06 07:42:00,
2013-08-06 03:47:00,75.5,73.0,29.93,SW,215,0.0,3.0,92,0.00,,CLR,0.00,VWS V14.01,2013-08-06 07:47:00,
2013-08-06 03:52:00,75.5,73.0,29.93,SW,215,0.0,3.0,92,0.00,,CLR,0.00,VWS V14.01,2013-08-06 07:52:00,
2013-08-06 03:57:00,75.4,72.9,29.93,SW,215,0.0,3.0,92,0.00,,CLR,0.00,VWS V14.01,2013-08-06 07:57:00,
2013-08-06 04:02:00,75.4,72.9,29.93,SW,215,0.0,0.0,92,0.00,,CLR,0.00,VWS V14.01,2013-08-06 08:02:00,
2013-08-06 04:07:00,75.4,72.9,29.93,SW,215,0.0,0.0,92,0.00,,CLR,0.00,VWS V14.01,2013-08-06 08:07:00,
2013-08-06 04:12:00,75.4,72.9,29.93,SW,215,0.0,0.0,92,0.00,,CLR,0.00,VWS V14.01,2013-08-06 08:12:00,
2013-08-06 04:17:00,75.4,72.9,29.93,SW,215,0.0,0.0,92,0.00,,CLR,0.00,VWS V14.01,2013-08-06 08:17:00,
2013-08-06 04:22:00,75.3,72.8,29.93,SW,215,0.0,0.0,92,0.00,,CLR,0.00,VWS V14.01,2013-08-06 08:22:00,
2013-08-06 04:27:00,75.3,72.8,29.93,SW,215,0.0,0.0,92,0.00,,CLR,0.00,VWS V14.01,2013-08-06 08:27:00,
2013-08-06 04:32:00,75.2,72.7,29.92,SW,215,0.0,0.0,92,0.00,,CLR,0.00,VWS V14.01,2013-08-06 08:32:00,
2013-08-06 04:37:00,75.2,72.7,29.93,SW,215,0.0,0.0,92,0.00,,CLR,0.00,VWS V14.01,2013-08-06 08:37:00,
2013-08-06 04:42:00,75.2,72.7,29.93,SW,215,0.0,0.0,92,0.00,,CLR,0.00,VWS V14.01,2013-08-06 08:42:00,
2013-08-06 04:47:00,75.2,72.7,29.93,SW,215,0.0,0.0,92,0.00,,CLR,0.00,VWS V14.01,2013-08-06 08:47:00,
2013-08-06 04:52:00,75.2,72.7,29.92,SW,215,0.0,0.0,92,0.00,,CLR,0.00,VWS V14.01,2013-08-06 08:52:00,
2013-08-06 04:57:00,75.1,72.6,29.92,SW,215,0.0,0.0,92,0.00,,CLR,0.00,VWS V14.01,2013-08-06 08:57:00,
2013-08-06 05:02:00,75.1,72.6,29.93,SW,215,0.0,0.0,92,0.00,,CLR,0.00,VWS V14.01,2013-08-06 09:02:00,
2013-08-06 05:07:00,75.0,72.5,29.93,SW,215,0.0,0.0,92,0.00,,CLR,0.00,VWS V14.01,2013-08-06 09:07:00,
2013-08-06 05:12:00,75.0,72.5,29.93,SW,214,0.0,0.0,92,0.00,,CLR,0.00,VWS V14.01,2013-08-06 09:12:00,
2013-08-06 05:17:00,74.9,72.4,29.93,SW,214,0.0,0.0,92,0.00,,CLR,0.00,VWS V14.01,2013-08-06 09:17:00,
2013-08-06 05:22:00,74.9,72.4,29.93,SW,214,0.0,0.0,92,0.00,,CLR,0.00,VWS V14.01,2013-08-06 09:22:00,
2013-08-06 05:27:00,74.9,72.4,29.94,SW,214,0.0,0.0,92,0.00,,CLR,0.00,VWS V14.01,2013-08-06 09:27:00,
2013-08-06 05:32:00,74.8,72.3,29.94,SW,214,0.0,0.0,92,0.00,,CLR,0.00,VWS V14.01,2013-08-06 09:32:00,
2013-08-06 05:37:00,74.8,72.3,29.94,SW,214,0.0,0.0,92,0.00,,CLR,0.00,VWS V14.01,2013-08-06 09:37:00,
2013-08-06 05:42:00,74.8,72.3,29.94,SW,214,0.0,0.0,92,0.00,,CLR,0.00,VWS V14.01,2013-08-06 09:42:00,
2013-08-06 05:47:00,74.8,72.3,29.94,SW,214,0.0,0.0,92,0.00,,CLR,0.00,VWS V14.01,2013-08-06 09:47:00,
2013-08-06 05:52:00,74.8,72.3,29.93,SW,214,0.0,0.0,92,0.00,,CLR,0.00,VWS V14.01,2013-08-06 09:52:00,
2013-08-06 05:57:00,74.8,72.3,29.94,SW,214,0.0,0.0,92,0.00,,CLR,0.00,VWS V14.01,2013-08-06 09:57:00,
2013-08-06 06:02:00,74.8,72.3,29.94,SW,214,0.0,0.0,92,0.00,,CLR,0.00,VWS V14.01,2013-08-06 10:02:00,
2013-08-06 06:07:00,74.7,72.2,29.93,SW,214,0.0,0.0,92,0.00,,CLR,0.00,VWS V14.01,2013-08-06 10:07:00,
2013-08-06 06:12:00,74.7,72.2,29.94,SW,214,0.0,0.0,92,0.00,,CLR,0.00,VWS V14.01,2013-08-06 10:12:00,
2013-08-06 06:17:00,74.6,72.1,29.94,SW,214,0.0,0.0,92,0.00,,CLR,0.00,VWS V14.01,2013-08-06 10:17:00,
2013-08-06 06:22:00,74.7,72.2,29.94,SW,214,0.0,0.0,92,0.00,,CLR,0.00,VWS V14.01,2013-08-06 10:22:00,
2013-08-06 06:26:00,74.6,72.1,29.95,SW,214,0.0,0.0,92,0.00,,CLR,0.00,VWS V14.01,2013-08-06 10:26:00,
2013-08-06 06:31:00,74.7,72.6,29.95,SW,214,0.0,0.0,93,0.00,,CLR,0.00,VWS V14.01,2013-08-06 10:31:00,
2013-08-06 06:36:00,74.7,72.2,29.95,SW,214,0.0,0.0,92,0.00,,CLR,0.00,VWS V14.01,2013-08-06 10:36:00,
2013-08-06 06:41:00,74.7,72.2,29.95,SW,214,0.0,0.0,92,0.00,,CLR,0.00,VWS V14.01,2013-08-06 10:41:00,
2013-08-06 06:46:00,74.7,72.6,29.95,SW,214,0.0,0.0,93,0.00,,CLR,0.00,VWS V14.01,2013-08-06 10:46:00,
2013-08-06 06:51:00,74.6,72.4,29.96,SW,214,0.0,0.0,93,0.00,,CLR,0.00,VWS V14.01,2013-08-06 10:51:00,
2013-08-06 06:56:00,74.7,72.6,29.95,SW,214,0.0,0.0,93,0.00,,CLR,0.00,VWS V14.01,2013-08-06 10:56:00,
2013-08-06 07:01:00,74.7,72.2,29.96,SW,214,0.0,0.0,92,0.00,,,0.00,VWS V14.01,2013-08-06 11:01:00,
2013-08-06 07:06:00,74.7,72.6,29.95,SW,214,0.0,0.0,93,0.00,,,0.00,VWS V14.01,2013-08-06 11:06:00,
2013-08-06 07:11:00,74.7,72.6,29.95,SW,215,0.0,0.0,93,0.00,,CLR,0.00,VWS V14.01,2013-08-06 11:11:00,
2013-08-06 07:16:00,74.7,72.6,29.96,SW,215,0.0,0.0,93,0.00,,CLR,0.00,VWS V14.01,2013-08-06 11:16:00,
2013-08-06 07:21:00,74.7,72.6,29.96,SW,215,0.0,0.0,93,0.00,,CLR,0.00,VWS V14.01,2013-08-06 11:21:00,
2013-08-06 07:26:00,74.8,72.6,29.96,SW,215,0.0,0.0,93,0.00,,CLR,0.00,VWS V14.01,2013-08-06 11:26:00,
2013-08-06 07:31:00,74.8,72.6,29.96,SW,215,0.0,0.0,93,0.00,,CLR,0.00,VWS V14.01,2013-08-06 11:31:00,
2013-08-06 07:36:00,74.9,72.7,29.96,SW,215,0.0,0.0,93,0.00,,CLR,0.00,VWS V14.01,2013-08-06 11:36:00,
2013-08-06 07:41:00,75.0,72.8,29.96,SW,215,0.0,0.0,93,0.00,,CLR,0.00,VWS V14.01,2013-08-06 11:41:00,
2013-08-06 07:46:00,75.1,72.9,29.96,SW,215,0.0,0.0,93,0.00,,CLR,0.00,VWS V14.01,2013-08-06 11:46:00,
2013-08-06 07:51:00,75.2,73.4,29.97,SW,215,0.0,0.0,94,0.00,,CLR,0.00,VWS V14.01,2013-08-06 11:51:00,
2013-08-06 07:56:00,75.3,73.1,29.96,SW,215,0.0,0.0,93,0.00,,CLR,0.00,VWS V14.01,2013-08-06 11:56:00,
2013-08-06 08:01:00,75.4,73.6,29.97,SW,215,0.0,0.0,94,0.00,,CLR,0.00,VWS V14.01,2013-08-06 12:01:00,
2013-08-06 08:06:00,75.5,73.7,29.97,SW,215,0.0,0.0,94,0.00,,CLR,0.00,VWS V14.01,2013-08-06 12:06:00,
2013-08-06 08:11:00,75.7,73.8,29.97,SW,214,0.0,0.0,94,0.00,,CLR,0.00,VWS V14.01,2013-08-06 12:11:00,
2013-08-06 08:16:00,75.8,73.9,29.97,SW,214,0.0,0.0,94,0.00,,CLR,0.00,VWS V14.01,2013-08-06 12:16:00,
2013-08-06 08:21:00,76.0,74.2,29.97,SW,214,0.0,0.0,94,0.00,,CLR,0.00,VWS V14.01,2013-08-06 12:21:00,
2013-08-06 08:26:00,76.1,74.2,29.97,SW,214,0.0,0.0,94,0.00,,CLR,0.00,VWS V14.01,2013-08-06 12:26:00,
2013-08-06 08:31:00,76.3,74.4,29.97,SW,214,0.0,0.0,94,0.00,,CLR,0.00,VWS V14.01,2013-08-06 12:31:00,
2013-08-06 08:36:00,76.5,75.0,29.96,SSW,212,0.0,0.0,95,0.00,,CLR,0.00,VWS V14.01,2013-08-06 12:36:00,
2013-08-06 08:41:00,76.7,74.8,29.97,SSW,212,0.0,1.0,94,0.00,,CLR,0.00,VWS V14.01,2013-08-06 12:41:00,
2013-08-06 08:46:00,76.9,75.4,29.97,SSW,208,0.0,1.0,95,0.00,,CLR,0.00,VWS V14.01,2013-08-06 12:46:00,
2013-08-06 08:51:00,77.2,75.7,29.97,SSW,200,0.0,1.0,95,0.00,,CLR,0.00,VWS V14.01,2013-08-06 12:51:00,
2013-08-06 08:56:00,77.6,75.7,29.97,SSW,210,0.0,1.0,94,0.00,,CLR,0.00,VWS V14.01,2013-08-06 12:56:00,
2013-08-06 09:01:00,78.0,75.8,29.97,SW,214,0.0,0.0,93,0.00,,CLR,0.00,VWS V14.01,2013-08-06 13:01:00,
2013-08-06 09:06:00,78.2,75.7,29.97,SW,215,0.0,0.0,92,0.00,,CLR,0.00,VWS V14.01,2013-08-06 13:06:00,
2013-08-06 09:11:00,78.5,76.6,29.97,SSW,209,0.0,0.0,94,0.00,,CLR,0.00,VWS V14.01,2013-08-06 13:11:00,
2013-08-06 09:16:00,78.8,75.9,29.97,North,356,0.0,3.0,91,0.00,,CLR,0.00,VWS V14.01,2013-08-06 13:16:00,
2013-08-06 09:21:00,79.0,76.2,29.97,North,358,0.0,4.0,91,0.00,,CLR,0.00,VWS V14.01,2013-08-06 13:21:00,
2013-08-06 09:26:00,79.4,76.2,29.98,NNW,334,3.0,4.0,90,0.00,,CLR,0.00,VWS V14.01,2013-08-06 13:26:00,
2013-08-06 09:31:00,79.7,76.5,29.98,NW,325,0.0,4.0,90,0.00,,CLR,0.00,VWS V14.01,2013-08-06 13:31:00,
2013-08-06 09:36:00,80.1,76.2,29.99,NNW,327,0.0,4.0,88,0.00,,CLR,0.00,VWS V14.01,2013-08-06 13:36:00,
2013-08-06 09:41:00,80.5,76.3,29.98,ENE,77,0.0,4.0,87,0.00,,CLR,0.00,VWS V14.01,2013-08-06 13:41:00,
2013-08-06 09:46:00,81.0,76.4,29.98,NE,42,0.0,4.0,86,0.00,,CLR,0.00,VWS V14.01,2013-08-06 13:46:00,
2013-08-06 09:51:00,81.2,76.3,29.99,NNE,23,0.0,6.0,85,0.00,,CLR,0.00,VWS V14.01,2013-08-06 13:51:00,
2013-08-06 09:56:00,81.5,76.2,29.98,NE,45,2.0,6.0,84,0.00,,CLR,0.00,VWS V14.01,2013-08-06 13:56:00,
2013-08-06 10:01:00,81.6,76.7,29.98,NNE,29,0.0,0.0,85,0.00,,CLR,0.00,VWS V14.01,2013-08-06 14:01:00,
2013-08-06 10:06:00,81.4,77.5,29.98,NNE,25,0.0,1.0,88,0.00,,CLR,0.00,VWS V14.01,2013-08-06 14:06:00,
2013-08-06 10:11:00,81.5,76.9,29.99,North,0,0.0,4.0,86,0.00,,CLR,0.00,VWS V14.01,2013-08-06 14:11:00,
2013-08-06 10:16:00,81.7,77.1,29.99,NE,37,0.0,4.0,86,0.00,,CLR,0.00,VWS V14.01,2013-08-06 14:16:00,
2013-08-06 10:21:00,81.8,76.5,29.98,NNE,21,0.0,4.0,84,0.00,,CLR,0.00,VWS V14.01,2013-08-06 14:21:00,
2013-08-06 10:26:00,81.9,76.6,29.99,NNE,25,0.0,4.0,84,0.00,,CLR,0.00,VWS V14.01,2013-08-06 14:26:00,
2013-08-06 10:31:00,81.8,76.8,29.99,NNE,25,2.0,4.0,85,0.00,,CLR,0.00,VWS V14.01,2013-08-06 14:31:00,
2013-08-06 10:36:00,81.9,76.9,29.99,NNE,26,0.0,4.0,85,0.00,,CLR,0.00,VWS V14.01,2013-08-06 14:36:00,
2013-08-06 10:41:00,82.0,77.4,30.00,NNE,32,4.0,4.0,86,0.00,,CLR,0.00,VWS V14.01,2013-08-06 14:41:00,
2013-08-06 10:46:00,82.0,77.8,30.00,NE,55,0.0,4.0,87,0.00,,CLR,0.00,VWS V14.01,2013-08-06 14:46:00,
2013-08-06 10:51:00,82.0,77.1,30.00,ENE,60,0.0,4.0,85,0.00,,CLR,0.00,VWS V14.01,2013-08-06 14:51:00,
2013-08-06 10:56:00,82.0,77.4,30.00,ENE,57,0.0,4.0,86,0.00,,CLR,0.00,VWS V14.01,2013-08-06 14:56:00,
2013-08-06 11:01:00,81.8,77.6,30.00,NE,55,0.0,0.0,87,0.00,,CLR,0.00,VWS V14.01,2013-08-06 15:01:00,
2013-08-06 11:06:00,81.9,77.7,30.01,ENE,57,0.0,4.0,87,0.00,,CLR,0.00,VWS V14.01,2013-08-06 15:06:00,
2013-08-06 11:11:00,81.9,77.3,30.00,NE,36,0.0,5.0,86,0.00,,CLR,0.00,VWS V14.01,2013-08-06 15:11:00,
2013-08-06 11:16:00,82.0,77.4,30.00,NE,46,1.0,5.0,86,0.00,,CLR,0.00,VWS V14.01,2013-08-06 15:16:00,
2013-08-06 11:21:00,82.5,78.2,30.00,ENE,67,2.0,5.0,87,0.00,,CLR,0.00,VWS V14.01,2013-08-06 15:21:00,
2013-08-06 11:26:00,82.9,78.3,30.00,ENE,58,0.0,5.0,86,0.00,,CLR,0.00,VWS V14.01,2013-08-06 15:26:00,
2013-08-06 11:31:00,83.3,78.3,30.01,NE,42,3.0,6.0,85,0.00,,CLR,0.00,VWS V14.01,2013-08-06 15:31:00,
2013-08-06 11:36:00,83.4,78.8,30.00,NE,42,3.0,6.0,86,0.00,,CLR,0.00,VWS V14.01,2013-08-06 15:36:00,
2013-08-06 11:41:00,83.5,78.2,30.00,NE,45,0.0,6.0,84,0.00,,CLR,0.00,VWS V14.01,2013-08-06 15:41:00,
2013-08-06 11:46:00,83.5,78.5,30.00,NNE,33,2.0,6.0,85,0.00,,CLR,0.00,VWS V14.01,2013-08-06 15:46:00,
2013-08-06 11:51:00,83.6,79.3,30.00,NE,38,3.0,6.0,87,0.00,,CLR,0.00,VWS V14.01,2013-08-06 15:51:00,
2013-08-06 11:56:00,83.7,79.1,30.00,ENE,76,0.0,6.0,86,0.00,,CLR,0.00,VWS V14.01,2013-08-06 15:56:00,
2013-08-06 12:01:00,83.9,78.9,30.01,NNE,29,6.0,7.0,85,0.00,,CLR,0.00,VWS V14.01,2013-08-06 16:01:00,
2013-08-06 12:06:00,84.0,78.3,30.01,NE,40,2.0,7.0,83,0.00,,CLR,0.00,VWS V14.01,2013-08-06 16:06:00,
2013-08-06 12:11:00,84.1,78.4,30.00,NE,51,0.0,7.0,83,0.00,,CLR,0.00,VWS V14.01,2013-08-06 16:11:00,
2013-08-06 12:16:00,84.3,79.3,30.00,North,7,3.0,7.0,85,0.00,,CLR,0.00,VWS V14.01,2013-08-06 16:16:00,
2013-08-06 12:21:00,84.3,78.9,30.00,ENE,58,3.0,7.0,84,0.00,,CLR,0.00,VWS V14.01,2013-08-06 16:21:00,
2013-08-06 12:26:00,84.6,79.6,30.00,NNW,346,3.0,7.0,85,0.00,,CLR,0.00,VWS V14.01,2013-08-06 16:26:00,
2013-08-06 12:31:00,84.7,79.0,30.00,NE,42,0.0,7.0,83,0.00,,CLR,0.00,VWS V14.01,2013-08-06 16:31:00,
2013-08-06 12:36:00,85.0,78.9,30.00,NE,42,0.0,8.0,82,0.00,,CLR,0.00,VWS V14.01,2013-08-06 16:36:00,
2013-08-06 12:41:00,85.3,79.2,30.00,NE,40,6.0,8.0,82,0.00,,CLR,0.00,VWS V14.01,2013-08-06 16:41:00,
2013-08-06 12:46:00,85.3,79.6,30.00,NE,47,3.0,8.0,83,0.00,,CLR,0.00,VWS V14.01,2013-08-06 16:46:00,
2013-08-06 12:51:00,85.4,78.2,30.00,NE,41,1.0,8.0,79,0.00,,CLR,0.00,VWS V14.01,2013-08-06 16:51:00,
2013-08-06 12:56:00,85.3,79.6,29.99,ENE,78,3.0,8.0,83,0.00,,CLR,0.00,VWS V14.01,2013-08-06 16:56:00,
2013-08-06 13:01:00,85.4,79.3,29.99,East,96,5.0,8.0,82,0.00,,SCT022,0.00,VWS V14.01,2013-08-06 17:01:00,
2013-08-06 13:06:00,85.4,78.9,29.99,NE,46,6.0,8.0,81,0.00,,SCT022,0.00,VWS V14.01,2013-08-06 17:06:00,
2013-08-06 13:11:00,85.3,78.8,29.99,NE,43,4.0,8.0,81,0.00,,SCT022,0.00,VWS V14.01,2013-08-06 17:11:00,
2013-08-06 13:16:00,85.6,79.5,29.99,ESE,113,5.0,8.0,82,0.00,,SCT022,0.00,VWS V14.01,2013-08-06 17:16:00,
2013-08-06 13:21:00,85.5,78.6,29.99,NE,55,2.0,8.0,80,0.00,,SCT022,0.00,VWS V14.01,2013-08-06 17:21:00,
2013-08-06 13:26:00,85.6,79.5,29.99,ENE,57,4.0,8.0,82,0.00,,SCT022,0.00,VWS V14.01,2013-08-06 17:26:00,
2013-08-06 13:27:00,85.6,79.1,29.99,ENE,75,0.0,8.0,81,0.00,,SCT022,0.00,VWS V14.01,2013-08-06 17:27:00,
2013-08-06 13:32:00,85.4,78.9,29.98,NNE,32,3.0,8.0,81,0.00,,SCT022,0.00,VWS V14.01,2013-08-06 17:32:00,
2013-08-06 13:37:00,85.2,78.7,29.98,NE,51,2.0,8.0,81,0.00,,SCT022,0.00,VWS V14.01,2013-08-06 17:37:00,
2013-08-06 13:42:00,85.1,78.6,29.99,NE,47,2.0,10.0,81,0.00,,SCT022,0.00,VWS V14.01,2013-08-06 17:42:00,
2013-08-06 13:47:00,85.3,79.2,29.99,NE,47,5.0,10.0,82,0.00,,SCT022,0.00,VWS V14.01,2013-08-06 17:47:00,
2013-08-06 13:52:00,85.4,79.3,29.99,ENE,78,4.0,10.0,82,0.00,,SCT022,0.00,VWS V14.01,2013-08-06 17:52:00,
2013-08-06 13:57:00,85.6,79.5,29.98,NE,34,5.0,10.0,82,0.00,,SCT022,0.00,VWS V14.01,2013-08-06 17:57:00,
2013-08-06 14:02:00,85.5,78.6,29.98,NE,55,5.0,10.0,80,0.00,,SCT029,0.00,VWS V14.01,2013-08-06 18:02:00,
2013-08-06 14:07:00,85.4,78.9,29.98,NE,44,2.0,10.0,81,0.00,,SCT029,0.00,VWS V14.01,2013-08-06 18:07:00,
2013-08-06 14:12:00,85.7,79.2,29.98,ENE,58,4.0,10.0,81,0.00,,SCT029,0.00,VWS V14.01,2013-08-06 18:12:00,
2013-08-06 14:17:00,85.9,79.0,29.98,East,82,4.0,10.0,80,0.00,,SCT029,0.00,VWS V14.01,2013-08-06 18:17:00,
2013-08-06 14:22:00,86.1,78.8,29.98,ENE,65,6.0,10.0,79,0.00,,SCT029,0.00,VWS V14.01,2013-08-06 18:22:00,
2013-08-06 14:27:00,85.8,78.2,29.98,SE,131,5.0,10.0,78,0.00,,SCT029,0.00,VWS V14.01,2013-08-06 18:27:00,
2013-08-06 14:32:00,85.8,78.5,29.97,NE,50,6.0,10.0,79,0.00,,SCT029,0.00,VWS V14.01,2013-08-06 18:32:00,
2013-08-06 14:37:00,85.8,79.3,29.97,ESE,113,4.0,10.0,81,0.00,,SCT029,0.00,VWS V14.01,2013-08-06 18:37:00,
2013-08-06 14:42:00,86.1,79.6,29.97,SE,125,5.0,10.0,81,0.00,,SCT029,0.00,VWS V14.01,2013-08-06 18:42:00,
2013-08-06 14:47:00,86.5,79.2,29.96,ESE,115,5.0,10.0,79,0.00,,SCT029,0.00,VWS V14.01,2013-08-06 18:47:00,
2013-08-06 14:52:00,86.7,79.4,29.96,ESE,120,7.0,10.0,79,0.00,,SCT029,0.00,VWS V14.01,2013-08-06 18:52:00,
2013-08-06 14:57:00,86.4,81.4,29.96,ESE,107,6.0,10.0,85,0.00,,SCT029,0.00,VWS V14.01,2013-08-06 18:57:00,
2013-08-06 15:02:00,86.3,78.2,29.97,ENE,61,0.0,4.0,77,0.00,,CLR,0.00,VWS V14.01,2013-08-06 19:02:00,
2013-08-06 15:07:00,86.0,79.1,29.96,ESE,111,3.0,8.0,80,0.00,,CLR,0.00,VWS V14.01,2013-08-06 19:07:00,
2013-08-06 15:12:00,85.9,79.0,29.98,East,84,4.0,8.0,80,0.00,,CLR,0.00,VWS V14.01,2013-08-06 19:12:00,
2013-08-06 15:17:00,85.9,79.0,29.96,East,96,5.0,8.0,80,0.00,,CLR,0.00,VWS V14.01,2013-08-06 19:17:00,
2013-08-06 15:22:00,85.9,78.6,29.97,NE,37,2.0,9.0,79,0.00,,CLR,0.00,VWS V14.01,2013-08-06 19:22:00,
2013-08-06 15:27:00,85.6,78.3,29.96,NE,44,6.0,9.0,79,0.00,,CLR,0.00,VWS V14.01,2013-08-06 19:27:00,
2013-08-06 15:32:00,85.2,78.3,29.97,ESE,118,5.0,9.0,80,0.00,,CLR,0.00,VWS V14.01,2013-08-06 19:32:00,
2013-08-06 15:37:00,85.2,77.9,29.97,ENE,72,4.0,9.0,79,0.00,,CLR,0.00,VWS V14.01,2013-08-06 19:37:00,
2013-08-06 15:42:00,85.1,78.2,29.96,ENE,67,5.0,9.0,80,0.00,,CLR,0.00,VWS V14.01,2013-08-06 19:42:00,
2013-08-06 15:47:00,85.1,78.6,29.96,ESE,117,7.0,11.0,81,0.00,,CLR,0.00,VWS V14.01,2013-08-06 19:47:00,
2013-08-06 15:52:00,85.2,77.9,29.96,ENE,66,4.0,11.0,79,0.00,,CLR,0.00,VWS V14.01,2013-08-06 19:52:00,
2013-08-06 15:57:00,85.2,78.3,29.95,ENE,74,3.0,11.0,80,0.00,,CLR,0.00,VWS V14.01,2013-08-06 19:57:00,
2013-08-06 16:02:00,85.3,78.8,29.95,East,82,6.0,8.0,81,0.00,,CLR,0.00,VWS V14.01,2013-08-06 20:02:00,
2013-08-06 16:07:00,85.5,79.0,29.95,ENE,69,3.0,8.0,81,0.00,,CLR,0.00,VWS V14.01,2013-08-06 20:07:00,
2013-08-06 16:12:00,85.6,78.7,29.95,ENE,67,4.0,8.0,80,0.00,,CLR,0.00,VWS V14.01,2013-08-06 20:12:00,
2013-08-06 16:17:00,85.7,78.8,29.96,East,97,4.0,8.0,80,0.00,,CLR,0.00,VWS V14.01,2013-08-06 20:17:00,
2013-08-06 16:22:00,85.7,78.8,29.95,NE,49,8.0,10.0,80,0.00,,CLR,0.00,VWS V14.01,2013-08-06 20:22:00,
2013-08-06 16:27:00,85.5,79.0,29.95,NNE,28,7.0,10.0,81,0.00,,CLR,0.00,VWS V14.01,2013-08-06 20:27:00,
2013-08-06 16:32:00,85.2,78.7,29.95,NE,48,5.0,10.0,81,0.00,,CLR,0.00,VWS V14.01,2013-08-06 20:32:00,
2013-08-06 16:37:00,85.2,78.7,29.96,ESE,104,4.0,10.0,81,0.00,,CLR,0.00,VWS V14.01,2013-08-06 20:37:00,
2013-08-06 16:42:00,85.3,78.4,29.96,NE,37,5.0,10.0,80,0.00,,CLR,0.00,VWS V14.01,2013-08-06 20:42:00,
2013-08-06 16:47:00,85.1,78.2,29.96,SE,124,4.0,10.0,80,0.00,,CLR,0.00,VWS V14.01,2013-08-06 20:47:00,
2013-08-06 16:52:00,85.1,78.2,29.96,NE,45,1.0,10.0,80,0.00,,CLR,0.00,VWS V14.01,2013-08-06 20:52:00,
2013-08-06 16:57:00,85.0,78.5,29.96,ESE,111,6.0,10.0,81,0.00,,CLR,0.00,VWS V14.01,2013-08-06 20:57:00,
2013-08-06 17:02:00,85.2,78.3,29.96,East,97,2.0,7.0,80,0.00,,CLR,0.00,VWS V14.01,2013-08-06 21:02:00,
2013-08-06 17:07:00,85.5,78.6,29.96,ESE,110,5.0,8.0,80,0.00,,CLR,0.00,VWS V14.01,2013-08-06 21:07:00,
2013-08-06 17:12:00,85.8,78.5,29.96,ESE,122,5.0,8.0,79,0.00,,CLR,0.00,VWS V14.01,2013-08-06 21:12:00,
2013-08-06 17:17:00,86.2,78.5,29.96,ESE,117,7.0,8.0,78,0.00,,CLR,0.00,VWS V14.01,2013-08-06 21:17:00,
2013-08-06 17:22:00,86.3,78.2,29.95,ESE,111,3.0,8.0,77,0.00,,CLR,0.00,VWS V14.01,2013-08-06 21:22:00,
2013-08-06 17:27:00,86.2,77.8,29.95,ESE,120,3.0,8.0,76,0.00,,CLR,0.00,VWS V14.01,2013-08-06 21:27:00,
2013-08-06 17:32:00,86.3,77.4,29.95,East,93,3.0,10.0,75,0.00,,CLR,0.00,VWS V14.01,2013-08-06 21:32:00,
2013-08-06 17:37:00,86.1,77.7,29.95,ESE,104,6.0,10.0,76,0.00,,CLR,0.00,VWS V14.01,2013-08-06 21:37:00,
2013-08-06 17:42:00,86.2,77.3,29.95,SE,132,6.0,10.0,75,0.00,,CLR,0.00,VWS V14.01,2013-08-06 21:42:00,
2013-08-06 17:47:00,86.1,78.1,29.95,ESE,102,4.0,10.0,77,0.00,,CLR,0.00,VWS V14.01,2013-08-06 21:47:00,
2013-08-06 17:52:00,85.8,78.2,29.95,NE,56,4.0,10.0,78,0.00,,CLR,0.00,VWS V14.01,2013-08-06 21:52:00,
2013-08-06 17:57:00,85.5,78.2,29.95,ENE,72,4.0,10.0,79,0.00,,CLR,0.00,VWS V14.01,2013-08-06 21:57:00,
2013-08-06 18:02:00,85.3,78.1,29.95,NE,53,4.0,7.0,79,0.00,,CLR,0.00,VWS V14.01,2013-08-06 22:02:00,
2013-08-06 18:07:00,85.0,78.1,29.94,NE,52,6.0,9.0,80,0.00,,CLR,0.00,VWS V14.01,2013-08-06 22:07:00,
2013-08-06 18:12:00,84.7,78.2,29.94,ENE,66,2.0,9.0,81,0.00,,CLR,0.00,VWS V14.01,2013-08-06 22:12:00,
2013-08-06 18:17:00,84.4,77.9,29.95,East,101,5.0,9.0,81,0.00,,CLR,0.00,VWS V14.01,2013-08-06 22:17:00,
2013-08-06 18:22:00,84.4,78.3,29.94,ENE,61,4.0,9.0,82,0.00,,CLR,0.00,VWS V14.01,2013-08-06 22:22:00,
2013-08-06 18:27:00,84.4,77.6,29.94,ENE,64,3.0,9.0,80,0.00,,CLR,0.00,VWS V14.01,2013-08-06 22:27:00,
2013-08-06 18:32:00,84.4,77.2,29.95,East,86,6.0,9.0,79,0.00,,CLR,0.00,VWS V14.01,2013-08-06 22:32:00,
2013-08-06 18:37:00,84.3,77.1,29.95,ENE,58,4.0,9.0,79,0.00,,CLR,0.00,VWS V14.01,2013-08-06 22:37:00,
2013-08-06 18:42:00,84.4,77.2,29.95,ESE,118,3.0,10.0,79,0.00,,CLR,0.00,VWS V14.01,2013-08-06 22:42:00,
2013-08-06 18:47:00,84.5,77.7,29.95,NE,41,0.0,10.0,80,0.00,,CLR,0.00,VWS V14.01,2013-08-06 22:47:00,
2013-08-06 18:52:00,84.4,77.9,29.95,ENE,75,2.0,10.0,81,0.00,,CLR,0.00,VWS V14.01,2013-08-06 22:52:00,
2013-08-06 18:57:00,84.1,78.0,29.95,ESE,107,5.0,10.0,82,0.00,,CLR,0.00,VWS V14.01,2013-08-06 22:57:00,
2013-08-06 19:02:00,84.2,78.1,29.96,ENE,60,2.0,6.0,82,0.00,,CLR,0.00,VWS V14.01,2013-08-06 23:02:00,
2013-08-06 19:07:00,84.0,77.9,29.95,East,98,2.0,7.0,82,0.00,,CLR,0.00,VWS V14.01,2013-08-06 23:07:00,
2013-08-06 19:12:00,83.9,78.2,29.96,ENE,61,3.0,7.0,83,0.00,,CLR,0.00,VWS V14.01,2013-08-06 23:12:00,
2013-08-06 19:17:00,83.8,77.7,29.96,ENE,61,4.0,7.0,82,0.00,,CLR,0.00,VWS V14.01,2013-08-06 23:17:00,
2013-08-06 19:22:00,83.7,78.0,29.97,ESE,107,5.0,7.0,83,0.00,,CLR,0.00,VWS V14.01,2013-08-06 23:22:00,
2013-08-06 19:27:00,83.7,79.1,29.97,ENE,60,0.0,7.0,86,0.00,,CLR,0.00,VWS V14.01,2013-08-06 23:27:00,
2013-08-06 19:32:00,83.6,78.3,29.96,NE,55,0.0,7.0,84,0.00,,CLR,0.00,VWS V14.01,2013-08-06 23:32:00,
2013-08-06 19:37:00,83.5,78.9,29.96,ENE,73,3.0,7.0,86,0.00,,CLR,0.00,VWS V14.01,2013-08-06 23:37:00,
2013-08-06 19:42:00,83.4,78.8,29.96,East,80,0.0,7.0,86,0.00,,CLR,0.00,VWS V14.01,2013-08-06 23:42:00,
2013-08-06 19:47:00,83.4,78.1,29.96,East,79,0.0,7.0,84,0.00,,CLR,0.00,VWS V14.01,2013-08-06 23:47:00,
2013-08-06 19:52:00,83.2,78.2,29.97,NE,56,0.0,7.0,85,0.00,,CLR,0.00,VWS V14.01,2013-08-06 23:52:00,
2013-08-06 19:57:00,83.1,77.8,29.97,ENE,64,0.0,7.0,84,0.00,,CLR,0.00,VWS V14.01,2013-08-06 23:57:00,
2013-08-06 20:02:00,83.0,78.4,29.97,ENE,60,0.0,0.0,86,0.00,,CLR,0.00,VWS V14.01,2013-08-07 00:02:00,
2013-08-06 20:07:00,82.9,78.3,29.97,ENE,58,1.0,1.0,86,0.00,,CLR,0.00,VWS V14.01,2013-08-07 00:07:00,
2013-08-06 20:12:00,82.8,77.8,29.97,ENE,63,0.0,4.0,85,0.00,,CLR,0.00,VWS V14.01,2013-08-07 00:12:00,
2013-08-06 20:17:00,82.8,77.8,29.98,NE,46,0.0,4.0,85,0.00,,CLR,0.00,VWS V14.01,2013-08-07 00:17:00,
2013-08-06 20:22:00,82.7,78.1,29.97,NE,48,0.0,4.0,86,0.00,,CLR,0.00,VWS V14.01,2013-08-07 00:22:00,
2013-08-06 20:27:00,82.7,77.7,29.98,NE,39,0.0,4.0,85,0.00,,CLR,0.00,VWS V14.01,2013-08-07 00:27:00,
2013-08-06 20:32:00,82.7,78.1,29.98,NE,53,0.0,4.0,86,0.00,,CLR,0.00,VWS V14.01,2013-08-07 00:32:00,
2013-08-06 20:37:00,82.6,78.0,29.98,NE,53,0.0,4.0,86,0.00,,CLR,0.00,VWS V14.01,2013-08-07 00:37:00,
2013-08-06 20:42:00,82.6,78.0,29.98,NE,52,0.0,5.0,86,0.00,,CLR,0.00,VWS V14.01,2013-08-07 00:42:00,
2013-08-06 20:47:00,82.5,77.9,29.99,NE,52,0.0,5.0,86,0.00,,CLR,0.00,VWS V14.01,2013-08-07 00:47:00,
2013-08-06 20:52:00,82.5,77.9,29.98,ENE,74,3.0,5.0,86,0.00,,CLR,0.00,VWS V14.01,2013-08-07 00:52:00,
2013-08-06 20:57:00,82.5,77.9,29.99,NE,51,0.0,5.0,86,0.00,,CLR,0.00,VWS V14.01,2013-08-07 00:57:00,
2013-08-06 21:02:00,82.4,77.8,29.98,NE,51,0.0,2.0,86,0.00,,CLR,0.00,VWS V14.01,2013-08-07 01:02:00,
2013-08-06 21:07:00,82.4,77.8,29.99,ENE,57,0.0,4.0,86,0.00,,CLR,0.00,VWS V14.01,2013-08-07 01:07:00,
2013-08-06 21:12:00,82.4,77.8,29.98,ENE,60,0.0,4.0,86,0.00,,CLR,0.00,VWS V14.01,2013-08-07 01:12:00,
2013-08-06 21:17:00,82.4,78.1,29.98,East,81,0.0,4.0,87,0.00,,CLR,0.00,VWS V14.01,2013-08-07 01:17:00,
2013-08-06 21:22:00,82.4,77.8,29.99,NNE,33,0.0,4.0,86,0.00,,CLR,0.00,VWS V14.01,2013-08-07 01:22:00,
2013-08-06 21:27:00,82.4,77.8,29.98,NE,50,1.0,4.0,86,0.00,,CLR,0.00,VWS V14.01,2013-08-07 01:27:00,
2013-08-06 21:32:00,82.4,77.8,29.98,NE,47,0.0,4.0,86,0.00,,CLR,0.00,VWS V14.01,2013-08-07 01:32:00,
2013-08-06 21:37:00,82.4,77.8,29.98,NE,47,0.0,4.0,86,0.00,,CLR,0.00,VWS V14.01,2013-08-07 01:37:00,
2013-08-06 21:42:00,82.4,77.8,29.98,NE,47,0.0,4.0,86,0.00,,CLR,0.00,VWS V14.01,2013-08-07 01:42:00,
2013-08-06 21:47:00,82.4,77.8,29.99,NE,46,0.0,4.0,86,0.00,,CLR,0.00,VWS V14.01,2013-08-07 01:47:00,
2013-08-06 21:52:00,82.3,77.7,29.98,ENE,66,0.0,4.0,86,0.00,,CLR,0.00,VWS V14.01,2013-08-07 01:52:00,
2013-08-06 21:57:00,82.3,77.7,29.98,ENE,63,0.0,4.0,86,0.00,,CLR,0.00,VWS V14.01,2013-08-07 01:57:00,
2013-08-06 22:02:00,82.3,77.7,29.99,ENE,73,0.0,0.0,86,0.00,,CLR,0.00,VWS V14.01,2013-08-07 02:02:00,
2013-08-06 22:07:00,82.2,77.6,29.98,East,79,0.0,2.0,86,0.00,,CLR,0.00,VWS V14.01,2013-08-07 02:07:00,
2013-08-06 22:12:00,82.2,77.6,29.98,ESE,106,0.0,3.0,86,0.00,,CLR,0.00,VWS V14.01,2013-08-07 02:12:00,
2013-08-06 22:17:00,82.2,77.6,29.98,ESE,111,0.0,4.0,86,0.00,,CLR,0.00,VWS V14.01,2013-08-07 02:17:00,
2013-08-06 22:22:00,82.2,77.6,29.98,ESE,111,0.0,4.0,86,0.00,,CLR,0.00,VWS V14.01,2013-08-07 02:22:00,
2013-08-06 22:27:00,82.2,77.6,29.98,ENE,76,0.0,4.0,86,0.00,,CLR,0.00,VWS V14.01,2013-08-07 02:27:00,
2013-08-06 22:32:00,82.2,77.6,29.98,East,82,0.0,4.0,86,0.00,,CLR,0.00,VWS V14.01,2013-08-07 02:32:00,
2013-08-06 22:37:00,82.2,77.6,29.98,East,82,0.0,5.0,86,0.00,,CLR,0.00,VWS V14.01,2013-08-07 02:37:00,
2013-08-06 22:42:00,82.2,77.9,29.98,East,97,0.0,5.0,87,0.00,,CLR,0.00,VWS V14.01,2013-08-07 02:42:00,
2013-08-06 22:47:00,82.2,77.9,29.98,East,97,0.0,5.0,87,0.00,,CLR,0.00,VWS V14.01,2013-08-07 02:47:00,
2013-08-06 22:52:00,82.1,77.8,29.99,East,97,0.0,5.0,87,0.00,,CLR,0.00,VWS V14.01,2013-08-07 02:52:00,
2013-08-06 22:57:00,82.2,77.9,29.98,East,97,0.0,5.0,87,0.00,,CLR,0.00,VWS V14.01,2013-08-07 02:57:00,
2013-08-06 23:02:00,82.2,77.9,29.98,East,97,0.0,0.0,87,0.00,,CLR,0.00,VWS V14.01,2013-08-07 03:02:00,
2013-08-06 23:07:00,82.2,77.6,29.99,East,97,0.0,0.0,86,0.00,,CLR,0.00,VWS V14.01,2013-08-07 03:07:00,
2013-08-06 23:12:00,82.2,77.9,29.99,East,97,0.0,0.0,87,0.00,,CLR,0.00,VWS V14.01,2013-08-07 03:12:00,
2013-08-06 23:17:00,82.2,77.9,29.99,East,97,0.0,0.0,87,0.00,,CLR,0.00,VWS V14.01,2013-08-07 03:17:00,
2013-08-06 23:22:00,82.1,77.8,29.98,East,97,0.0,0.0,87,0.00,,CLR,0.00,VWS V14.01,2013-08-07 03:22:00,
2013-08-06 23:26:00,82.1,77.8,29.98,East,97,0.0,0.0,87,0.00,,CLR,0.00,VWS V14.01,2013-08-07 03:26:00,
2013-08-06 23:31:00,82.1,77.8,29.98,East,97,0.0,0.0,87,0.00,,CLR,0.00,VWS V14.01,2013-08-07 03:31:00,
2013-08-06 23:36:00,82.1,77.8,29.98,East,97,0.0,0.0,87,0.00,,CLR,0.00,VWS V14.01,2013-08-07 03:36:00,
2013-08-06 23:41:00,82.1,77.8,29.99,East,97,0.0,1.0,87,0.00,,CLR,0.00,VWS V14.01,2013-08-07 03:41:00,
2013-08-06 23:46:00,82.2,77.9,29.98,East,97,0.0,1.0,87,0.00,,CLR,0.00,VWS V14.01,2013-08-07 03:46:00,
2013-08-06 23:51:00,82.1,77.8,29.98,East,97,0.0,1.0,87,0.00,,CLR,0.00,VWS V14.01,2013-08-07 03:51:00,
2013-08-06 23:56:00,82.1,77.8,29.99,East,97,0.0,1.0,87,0.00,,CLR,0.00,VWS V14.01,2013-08-07 03:56:00,